Content
SEND FEEDBACK

Daily
Averages
Monthly
Summary
United States of America

BOX ELDER, SOUTH DAKOTA


Home > North America > United States > South Dakota
Elevation: 3170 feet     Latitude: 44 09N     Longitude: 103 06W

WEATHER
 
SELECT A DAY
Number of Records: 206,960;   Date Range: 1/1/95 - 9/28/14
 
SHARE

PRINT THIS DATA

[ ← Previous Day ]
WEATHER ALMANAC - AUGUST 27, 2014
[ Next Day → ]
[ °C ]   °F
Weather ElementAverageHighLow
Temperature66.7 °F73.4 °F (12:48 pm)55.8 °F (6:58 am)
Dewpoint60.2 °F64.4 °F (2:38 am)53.2 °F (4:58 am)
Humidity80.4 %100 % (12:58 am)65 % (11:58 am)
Barometer30.09 in30.15 in (4:58 am)29.99 in (5:58 am)
Wind Speed6.1 mph10.4 mph (1:43 pm)
Weather ElementAverage
Visibility9.8 mi
Wind DirectionSE (131.4 °)

Weather ElementTotal
Precipitation---
Heating Degree Days0.4 (Base 65)
Growing Degree Days14.6 (Base 50)
Averaged from 42 records on August 27, 2014
WEATHER CONDITIONS BREAKOUT
WIND DIRECTION BREAKOUT
WEATHER BY HOUR - AUGUST 27, 2014
[ °C ]   °F
Local TimeTemperatureDewpointHumidityBarometerVisibilityWind DirectionWind SpeedGust SpeedPrecipitationEventsConditions
12:58 AM61.7 °F54.3 °F77 %30.12 in10.0 miCalmOvercast
1:58 AM61.7 °F54.1 °F76 %30.12 in10.0 miESE (120°)3.5 mphClear
2:58 AM58.3 °F54.1 °F86 %30.11 in10.0 miESE (110°)4.6 mphClear
3:58 AM58.6 °F54.0 °F84 %30.10 in10.0 miNE (50°)2.3 mphOvercast
4:58 AM58.8 °F54.1 °F84 %30.08 in10.0 miNorth (360°)3.5 mphOvercast
5:58 AM56.5 °F53.4 °F89 %30.10 in10.0 miNorth (350°)1.2 mphScattered Clouds
6:58 AM55.8 °F53.2 °F91 %30.12 in10.0 miESE (120°)2.3 mphClear
7:58 AM57.6 °F54.3 °F89 %30.13 in10.0 miENE (70°)4.6 mphClear
8:58 AM62.1 °F55.9 °F80 %30.12 in10.0 miENE (60°)4.6 mphClear
9:58 AM66.4 °F57.6 °F73 %30.10 in10.0 miNNE (20°)9.2 mphClear
10:58 AM67.8 °F59.4 °F74 %30.10 in10.0 miENE (70°)10.4 mphScattered Clouds
11:08 AM68.0 °F59.0 °F73 %30.15 in10.0 miENE (70°)8.1 mphMostly Cloudy
11:16 AM68.0 °F60.8 °F78 %30.14 in10.0 miENE (70°)9.2 mphMostly Cloudy
11:24 AM68.0 °F60.8 °F78 %30.14 in10.0 miEast (90°)5.8 mphMostly Cloudy
11:58 AM69.8 °F60.8 °F73 %30.10 in10.0 miESE (120°)8.1 mphMostly Cloudy
12:04 PM69.8 °F60.8 °F73 %30.14 in10.0 miESE (120°)9.2 mphMostly Cloudy
12:09 PM69.8 °F60.8 °F73 %30.13 in10.0 miVariable5.8 mphMostly Cloudy
12:19 PM69.8 °F60.8 °F73 %30.13 in10.0 miVariable5.8 mphScattered Clouds
12:58 PM71.4 °F61.9 °F72 %30.08 in10.0 miENE (70°)4.6 mphPartly Cloudy
1:23 PM71.6 °F60.8 °F69 %30.12 in10.0 miSE (140°)4.6 mphMostly Cloudy
1:48 PM73.4 °F60.8 °F65 %30.10 in10.0 miESE (110°)4.6 mphMostly Cloudy
1:58 PM73.2 °F61.7 °F67 %30.06 in10.0 miSE (130°)4.6 mphMostly Cloudy
2:03 PM73.4 °F60.8 °F65 %30.09 in10.0 miEast (90°)4.6 mphScattered Clouds
2:18 PM73.4 °F60.8 °F65 %30.09 in10.0 miEast (100°)8.1 mphMostly Cloudy
2:28 PM73.4 °F60.8 °F65 %30.09 in10.0 miEast (90°)9.2 mphMostly Cloudy
2:58 PM73.4 °F62.6 °F69 %30.05 in10.0 miSE (140°)8.1 mphMostly Cloudy
3:03 PM73.4 °F62.6 °F69 %30.09 in10.0 miSE (130°)8.1 mphMostly Cloudy
3:58 PM73.2 °F62.1 °F68 %30.02 in10.0 miVariable4.6 mphMostly Cloudy
4:58 PM72.5 °F61.5 °F68 %30.02 in10.0 miSSE (160°)6.9 mphScattered Clouds
5:58 PM71.1 °F61.7 °F72 %30.03 in10.0 miSE (130°)8.1 mphMostly Cloudy
6:58 PM68.9 °F62.4 °F80 %30.04 in10.0 miSSE (150°)10.4 mphMostly Cloudy
7:36 PM66.2 °F64.4 °F94 %30.08 in10.0 miSE (140°)10.4 mphLight Drizzle
7:48 PM66.2 °F64.4 °F94 %30.08 in10.0 miSSE (150°)8.1 mphRainLight Rain
7:58 PM65.3 °F63.5 °F94 %30.06 in10.0 miSE (130°)9.2 mph0.00 inRainLight Rain Showers
8:28 PM64.4 °F62.6 °F94 %30.09 in4.0 miSE (140°)8.1 mphRainLight Rain Showers
8:42 PM64.4 °F62.6 °F94 %30.08 in7.0 miSW (230°)5.8 mphRainLight Rain Showers
8:58 PM63.9 °F63.1 °F97 %30.05 in10.0 miSW (230°)5.8 mph0.00 inRainLight Rain Showers
9:58 PM64.0 °F64.0 °F100 %30.03 in10.0 miWNW (290°)2.3 mph0.00 inLight Drizzle
10:12 PM64.4 °F64.4 °F100 %30.06 in10.0 miNW (310°)4.6 mphLight Drizzle
10:18 PM64.4 °F64.4 °F100 %30.05 in10.0 miNW (310°)4.6 mphMostly Cloudy
10:58 PM64.4 °F64.0 °F99 %30.00 in10.0 miNNW (340°)8.1 mph0.00 inMostly Cloudy
11:58 PM64.2 °F61.7 °F91 %29.99 in10.0 miNorth (10°)4.6 mphMostly Cloudy
Hourly data recorded from KRCA, located miles away from Box Elder, South Dakota







STORIES FROM OUR PARTNERS